Regional Weather Roundup
Issued by NWS

Home | Current Version | Previous Version | Graphics & Text | Print | Product List | Glossary On
Versions: 1 2 3 4 5 6 7 8 9 10 11 12 13 14 15 16 17 18 19 20 21 22 23 24 25 26 27 28 29 30 31 32 33 34 35 36 37 38 39 40 41 42 43 44 45 46 47 48 49 50
000
ASUS43 KDTX 242010
RWRMI
MICHIGAN HOURLY REGIONAL WEATHER ROUNDUP
NATIONAL WEATHER SERVICE DETROIT/PONTIAC MI
ISSUED BY NATIONAL WEATHER SERVICE GRAND RAPIDS MI
400 PM EDT MON JUL 24 2017

NOTE: "FAIR" INDICATES FEW OR NO CLOUDS BELOW 12,000 FEET WITH NO
SIGNIFICANT WEATHER AND/OR OBSTRUCTION TO VISIBILITY.

MIZ047>049-052>055-059>063-066>070-074>076-081>083-242100-
SOUTHEAST LOWER MICHIGAN

CITY           SKY/WX    TMP DP  RH WIND       PRES   REMARKS
ADRIAN         CLOUDY    71  56  58 N12       30.04R
ALMA           MOSUNNY   75  49  39 N9        30.02F
ANN ARBOR      CLOUDY    72  58  61 N10G17    30.01S
BAD AXE        PTSUNNY   67  55  66 N18G24    30.02S
DETROIT CITY   PTSUNNY   72  55  55 N15G24    29.99R
DETROIT        PTSUNNY   71  57  61 NW12      30.00R
FLINT          MOSUNNY   71  53  52 N18G26    30.01R
GROSSE ILE     PTSUNNY   71  56  59 N9        29.98S
HILLSDALE      CLOUDY    68  54  60 NE8       30.04R
HOWELL         MOSUNNY   72  53  51 NE9G17    30.02R

CITY           SKY/WX    TMP DP  RH WIND       PRES   REMARKS
JACKSON        PTSUNNY   71  55  56 N9        30.03S
LANSING        PTSUNNY   73  53  49 NE9G18    30.03R
MASON          PTSUNNY   72  57  58 NE10G21   30.03S
MONROE         CLOUDY    68  58  71 NW9       30.00R
MT. CLEMENS    PTSUNNY   71  57  61 N18G25    29.97R
PONTIAC        PTSUNNY   74  54  49 N16G26    29.99R
PORT HOPE        N/A     70  59  68 VRB3      30.00S
PORT HURON     CLOUDY    68  55  64 N12G22    29.99R
TRI CITIES     MOSUNNY   74  59  59 NE12      30.03R
YPSILANTI      PTSUNNY   73  59  61 N14       30.01S
$$
MIZ043>046-050>051-056>058-064>065-071>073-077>080-242100-
SOUTHWEST LOWER MICHIGAN

CITY           SKY/WX    TMP DP  RH WIND       PRES   REMARKS
BATTLE CREEK   PTSUNNY   74  55  51 NE7       30.05R
BENTON HARBOR  MOSUNNY   72  58  61 N8        30.04R
BIG RAPIDS     PTSUNNY   74  50  42 E7        30.03F
COLDWATER      CLOUDY    71  57  63 N7        30.04R
HOLLAND        PTSUNNY   77  56  48 E7        30.04R
GRAND RAPIDS   PTSUNNY   78  55  44 NE8       30.03R
KALAMAZOO      CLOUDY    73  53  49 NE10      30.04R
MARSHALL       PTSUNNY   71  56  58 NE5       30.04R
MOUNT PLEASANT MOSUNNY   76  49  38 N6        30.01F
MUSKEGON       MOSUNNY   79  53  40 NE8       30.03S
STURGIS        CLOUDY    70  58  66 NE5       30.04R
$$
MIZ016>042-242100-
NORTHERN LOWER MICHIGAN

CITY           SKY/WX    TMP DP  RH WIND       PRES   REMARKS
ALPENA         SUNNY     74  54  49 N14G22    30.04R
BEAVER ISLAND  SUNNY     73  45  35 NE8G16    30.07S
BELLAIRE       SUNNY     74  49  41 N5        30.05R
CADILLAC       MOSUNNY   75  49  39 N7        30.05S
CHARLEVOIX     SUNNY     71  55  56 N10       30.09S
GAYLORD        SUNNY     73  43  33 N8        30.06R
HOUGHTON LAKE  MOSUNNY   76  51  41 NE12      30.04S
MANISTEE       SUNNY     74  55  51 N14       30.04F
OSCODA         MOSUNNY   74  51  44 NE12G20   30.02R
PELLSTON       SUNNY     76  46  34 N13       30.05S
TRAVERSE CITY  MOSUNNY   74  51  44 N9        30.05R
LUDINGTON      PTSUNNY   72  56  58 N14       30.04S
$$
MIZ007>008-015-242100-
EASTERN UPPER MICHIGAN

CITY           SKY/WX    TMP DP  RH WIND       PRES   REMARKS
KINROSS        SUNNY     71  49  45 N15       30.05S
MACKINAC ISLAN SUNNY     73  52  47 N7G17     30.05R
NEWBERRY       SUNNY     69  51  52 N9G16     30.07F
S. S. MARIE    SUNNY     72  51  47 NW14      30.04S
$$
MIZ004>006-011>014-085-242100-
CENTRAL UPPER MICHIGAN

CITY           SKY/WX    TMP DP  RH WIND       PRES   REMARKS
MANISTIQUE     SUNNY     74  48  40 N9        30.06S
ESCANABA       SUNNY     75  52  44 VRB7      30.07S
MENOMINEE      SUNNY     71  54  54 SE10      30.09S
SAWYER-GWINN   SUNNY     72  50  46 NE12      30.10S
$$
MIZ001>003-009>011-084-242100-
WESTERN UPPER MICHIGAN

CITY           SKY/WX    TMP DP  RH WIND       PRES   REMARKS
IRON MOUNTAIN  SUNNY     76  49  38 E5        30.07F
HOUGHTON       SUNNY     76  51  41 VRB3      30.08S
COPPER HARBOR    N/A     60  53  77 N14       30.07S
IRONWOOD       SUNNY     76  51  41 S8        30.07F
$$

ABBREVIATIONS USED IN REMARKS
   TC - TEMPERATURE IN CELSIUS
  WCI - WIND CHILL INDEX
   HX - HEAT INDEX
  VSB - VISIBILITY




USA.gov is the U.S. government's official web portal to all federal, state and local government web resources and services.